Three Rivers, MI

12:23 AM EST on February 24, 2017 (GMT -0500)
Three Rivers Municipal-Haines

Weather History for KHAI - November, 2012

Change the Weather History Date:

Saturday, November 3, 2012

  Actual Average Record
Temperature  
Mean Temperature 34 °F -  
Max Temperature 41 °F 54 °F 76 °F (1987)
Min Temperature 26 °F 36 °F 11 °F (1951)
Degree Days  
Heating Degree Days 32    
Moisture  
Dew Point 29 °F    
Average Humidity 81    
Maximum Humidity 96    
Minimum Humidity 62    
Precipitation  
Precipitation 0.00 in - - ()
Sea Level Pressure  
Sea Level Pressure 30.17 in    
Wind  
Wind Speed 1 mph (North)    
Max Wind Speed 6 mph    
Max Gust Speed -    
Visibility 10 miles    
Events      
Averages and records for this station are not official NWS values.
T = Trace of Precipitation, MM = Missing Value Source: NWS Daily Summary

Daily Weather History Graph

Daily Weather History Graph

Search for Another Location

Airport or City:

Trip Planner

Search our weather history database for the weather conditions in past years. The results will help you decide how hot, cold, wet, or windy it might be!

Date:

Astronomy

Nov. 03, 2012 Rise Set
Actual Time 8:17 AM EDT 6:33 PM EDT
Civil Twilight 7:48 AM EDT 7:02 PM EDT
Nautical Twilight 7:15 AM EDT 7:35 PM EDT
Astronomical Twilight 6:43 AM EDT 8:08 PM EDT
Moon 10:12 PM EDT (11/3) 12:23 PM EDT (11/3)
Length of Visible Light 11h 13m
Length of Day
10h 15m
Waning Gibbous, 80% of the Moon is Illuminated
Nov 3
Waning Gibbous
Nov 6
Last Quarter
Nov 13
New
Nov 20
First Quarter
Nov 28
Full

Hourly Weather History & Observations

Time (EDT) Temp. Windchill Dew Point Humidity Pressure Visibility Wind Dir Wind Speed Gust Speed Precip Events Conditions
12:14 AM 34.7 °F - 31.1 °F 87% 30.12 in 10.0 mi Calm Calm - N/A   Clear
12:33 AM 32.2 °F - 28.8 °F 87% 30.12 in 10.0 mi Calm Calm - N/A   Clear
12:54 AM 32.0 °F 28.7 °F 29.1 °F 89% 30.13 in 10.0 mi NW 3.5 mph - N/A   Clear
1:14 AM 32.0 °F 28.7 °F 29.3 °F 90% 30.13 in 10.0 mi NNW 3.5 mph - N/A   Clear
1:33 AM 32.4 °F 29.1 °F 29.7 °F 90% 30.14 in 10.0 mi NW 3.5 mph - N/A   Clear
1:54 AM 31.6 °F - 29.1 °F 90% 30.14 in 10.0 mi Calm Calm - N/A   Clear
2:13 AM 31.6 °F 28.3 °F 29.3 °F 91% 30.15 in 10.0 mi West 3.5 mph - N/A   Clear
2:33 AM 31.1 °F - 28.6 °F 90% 30.15 in 10.0 mi Calm Calm - N/A   Clear
2:54 AM 31.1 °F - 28.6 °F 90% 30.15 in 10.0 mi Calm Calm - N/A   Clear
3:13 AM 31.1 °F - 28.6 °F 90% 30.15 in 10.0 mi Calm Calm - N/A   Clear
3:34 AM 31.1 °F - 28.9 °F 92% 30.15 in 10.0 mi Calm Calm - N/A   Clear
3:54 AM 31.1 °F - 28.9 °F 92% 30.15 in 10.0 mi Calm Calm - N/A   Clear
4:13 AM 30.9 °F 27.5 °F 28.4 °F 90% 30.15 in 10.0 mi North 3.5 mph - N/A   Clear
4:34 AM 30.9 °F 27.5 °F 28.6 °F 91% 30.15 in 10.0 mi WNW 3.5 mph - N/A   Clear
4:54 AM 29.3 °F - 27.1 °F 92% 30.15 in 10.0 mi Calm Calm - N/A   Clear
5:13 AM 31.1 °F - 29.1 °F 92% 30.15 in 10.0 mi Calm Calm - N/A   Clear
5:34 AM 30.0 °F - 28.0 °F 92% 30.16 in 10.0 mi Calm Calm - N/A   Clear
5:54 AM 29.3 °F - 27.3 °F 92% 30.16 in 10.0 mi Calm Calm - N/A   Clear
6:13 AM 28.4 °F - 26.1 °F 91% 30.16 in 10.0 mi Calm Calm - N/A   Clear
6:34 AM 28.9 °F - 27.1 °F 93% 30.15 in 10.0 mi Calm Calm - N/A   Clear
6:53 AM 29.3 °F - 27.9 °F 94% 30.15 in 10.0 mi Calm Calm - N/A   Clear
7:13 AM 29.1 °F - 27.5 °F 94% 30.15 in 10.0 mi Calm Calm - N/A   Clear
7:34 AM 30.0 °F - 28.2 °F 93% 30.16 in 10.0 mi Calm Calm - N/A   Clear
7:53 AM 29.7 °F - 28.0 °F 94% 30.16 in 10.0 mi Calm Calm - N/A   Clear
8:14 AM 27.7 °F - 25.9 °F 93% 30.17 in 10.0 mi Calm Calm - N/A   Clear
8:34 AM 26.4 °F - 24.8 °F 94% 30.17 in 10.0 mi Calm Calm - N/A   Clear
8:53 AM 28.4 °F - 26.8 °F 94% 30.18 in 10.0 mi Calm Calm - N/A   Clear
9:14 AM 30.4 °F - 28.8 °F 94% 30.19 in 10.0 mi Calm Calm - N/A   Clear
9:34 AM 32.0 °F - 30.9 °F 96% 30.19 in 10.0 mi Calm Calm - N/A   Clear
9:53 AM 33.1 °F - 31.3 °F 93% 30.21 in 10.0 mi Calm Calm - N/A   Clear
10:14 AM 34.2 °F - 31.8 °F 91% 30.20 in 10.0 mi Calm Calm - N/A   Clear
10:34 AM 35.8 °F 31.9 °F 32.0 °F 86% 30.20 in 10.0 mi North 4.6 mph - N/A   Clear
10:53 AM 36.0 °F 33.3 °F 31.6 °F 84% 30.21 in 10.0 mi NNE 3.5 mph - N/A   Clear
11:14 AM 36.5 °F - 31.1 °F 81% 30.21 in 10.0 mi Calm Calm - N/A   Mostly Cloudy
11:33 AM 36.5 °F - 30.7 °F 80% 30.21 in 10.0 mi Calm Calm - N/A   Overcast
11:53 AM 36.9 °F 34.3 °F 30.7 °F 79% 30.22 in 10.0 mi NE 3.5 mph - N/A   Overcast
12:14 PM 37.4 °F - 30.0 °F 75% 30.22 in 10.0 mi Calm Calm - N/A   Overcast
12:33 PM 37.8 °F - 29.8 °F 73% 30.21 in 10.0 mi Calm Calm - N/A   Overcast
12:54 PM 38.5 °F - 29.8 °F 71% 30.21 in 10.0 mi Calm Calm - N/A   Overcast
1:14 PM 39.2 °F 35.0 °F 29.8 °F 69% 30.21 in 10.0 mi NNW 5.8 mph - N/A   Overcast
1:33 PM 38.3 °F - 29.3 °F 70% 30.19 in 10.0 mi Calm Calm - N/A   Overcast
1:54 PM 39.4 °F 37.2 °F 29.8 °F 69% 30.18 in 10.0 mi NE 3.5 mph - N/A   Mostly Cloudy
2:14 PM 39.4 °F 37.2 °F 30.0 °F 69% 30.18 in 10.0 mi North 3.5 mph - N/A   Mostly Cloudy
2:33 PM 39.2 °F - 29.3 °F 68% 30.18 in 10.0 mi Calm Calm - N/A   Mostly Cloudy
2:54 PM 40.1 °F 36.9 °F 29.7 °F 66% 30.17 in 10.0 mi WNW 4.6 mph - N/A   Overcast
3:13 PM 41.5 °F 37.8 °F 30.0 °F 64% 30.16 in 10.0 mi WNW 5.8 mph - N/A   Scattered Clouds
3:34 PM 41.5 °F - 29.5 °F 62% 30.16 in 10.0 mi Calm Calm - N/A   Mostly Cloudy
3:54 PM 41.0 °F 39.0 °F 30.0 °F 65% 30.16 in 10.0 mi North 3.5 mph - N/A   Mostly Cloudy
4:13 PM 40.6 °F - 29.3 °F 64% 30.16 in 10.0 mi Calm Calm - N/A   Scattered Clouds
4:34 PM 41.2 °F 39.2 °F 30.0 °F 65% 30.16 in 10.0 mi North 3.5 mph - N/A   Mostly Cloudy
4:54 PM 41.0 °F 38.0 °F 30.0 °F 65% 30.15 in 10.0 mi NE 4.6 mph - N/A   Overcast
5:13 PM 41.0 °F 38.0 °F 29.8 °F 64% 30.16 in 7.0 mi NNE 4.6 mph - N/A   Mostly Cloudy
5:34 PM 41.0 °F 38.0 °F 29.7 °F 64% 30.16 in 10.0 mi NNE 4.6 mph - N/A   Scattered Clouds
5:53 PM 39.9 °F 37.8 °F 29.3 °F 66% 30.15 in 10.0 mi NE 3.5 mph - N/A   Scattered Clouds
6:13 PM 39.4 °F 36.1 °F 29.3 °F 67% 30.16 in 10.0 mi NNE 4.6 mph - N/A   Scattered Clouds
6:34 PM 38.5 °F 35.0 °F 28.9 °F 69% 30.16 in 10.0 mi NE 4.6 mph - N/A   Scattered Clouds
6:53 PM 37.9 °F - 29.3 °F 71% 30.17 in 10.0 mi Calm Calm - N/A   Mostly Cloudy
7:14 PM 37.6 °F 35.1 °F 29.3 °F 72% 30.17 in 10.0 mi NNE 3.5 mph - N/A   Mostly Cloudy
7:34 PM 37.9 °F 33.5 °F 29.3 °F 71% 30.17 in 10.0 mi NE 5.8 mph - N/A   Mostly Cloudy
7:53 PM 37.8 °F 34.2 °F 28.9 °F 71% 30.17 in 10.0 mi NE 4.6 mph - N/A   Overcast
8:14 PM 36.9 °F 34.3 °F 29.8 °F 76% 30.17 in 10.0 mi ENE 3.5 mph - N/A   Mostly Cloudy
8:34 PM 36.0 °F - 29.3 °F 77% 30.18 in 10.0 mi Calm Calm - N/A   Scattered Clouds
8:53 PM 36.1 °F - 29.7 °F 77% 30.18 in 10.0 mi Calm Calm - N/A   Mostly Cloudy
9:14 PM 36.0 °F - 29.8 °F 78% 30.18 in 10.0 mi Calm Calm - N/A   Overcast
9:33 PM 36.0 °F - 29.7 °F 78% 30.18 in 10.0 mi Calm Calm - N/A   Overcast
9:54 PM 35.6 °F - 29.1 °F 77% 30.18 in 10.0 mi Calm Calm - N/A   Mostly Cloudy
10:14 PM 34.7 °F - 29.3 °F 81% 30.18 in 10.0 mi Calm Calm - N/A   Scattered Clouds
10:33 PM 33.3 °F - 28.6 °F 83% 30.18 in 10.0 mi Calm Calm - N/A   Scattered Clouds
10:54 PM 31.8 °F - 27.1 °F 83% 30.18 in 10.0 mi Calm Calm - N/A   Scattered Clouds
11:14 PM 31.8 °F - 28.0 °F 86% 30.18 in 10.0 mi Calm Calm - N/A   Overcast
11:33 PM 32.0 °F - 28.2 °F 86% 30.19 in 10.0 mi Calm Calm - N/A   Overcast
11:54 PM 31.8 °F - 28.4 °F 87% 30.19 in 10.0 mi Calm Calm - N/A   Overcast